Temperature
18 18 18 18 17 17 17 16 15 14 14 14 14 14 15 14 14 15 14 14 14 14 14 13 13 13 13 13 13 13 13 13 13 13 14 14 14 14 15 15 15 15 15 15
19 19 19 18 18 17 17 16 16 16 15 16 16 15 15 15 15 15 15 14 14 14 14 14 14 13 13 13 12 12 12 13 13 13 13 13 13 14 14 14 14 14 15 15
20 19 19 18 18 18 17 17 17 16 16 17 17 17 16 16 16 15 15 14 14 14 14 14 14 14 13 13 12 12 12 12 12 12 12 13 13 13 13 13 13 13 14 14
21 20 19 18 19 18 18 18 18 18 17 17 17 17 16 16 15 15 15 14 14 14 14 14 14 14 14 13 12 12 12 12 12 12 12 12 12 12 12 12 12 12 13 13
21 20 19 18 18 18 18 18 19 18 18 18 18 17 17 16 15 15 14 14 14 15 15 14 14 14 14 13 13 12 12 12 12 12 12 12 12 12 12 12 12 12 12 12
20 20 19 19 19 19 18 18 19 18 18 18 18 17 16 16 15 15 14 14 14 15 15 14 14 14 14 13 13 12 12 11 11 12 12 12 12 11 11 11 11 11 11 11
20 20 20 19 18 18 17 18 18 18 18 17 17 16 16 16 15 15 15 14 14 14 15 14 14 14 13 13 12 12 12 12 11 11 11 11 11 11 11 11 11 11 11 11
21 20 19 18 18 18 18 18 18 17 17 16 16 16 16 16 16 15 15 14 14 14 15 15 14 14 14 13 13 12 12 12 11 11 11 11 11 11 10 10 10 10 10 10
21 19 19 18 18 18 18 18 17 17 16 16 16 16 16 16 16 15 15 14 14 15 15 15 15 14 14 13 13 13 13 12 12 11 11 11 11 10 10 10 10 10 10 10
20 20 19 18 18 17 17 17 17 16 15 16 16 16 16 16 15 15 15 15 15 15 15 15 15 15 14 14 13 13 13 13 12 11 11 11 11 10 10 10 10 10 10 10
20 20 19 18 18 17 17 17 16 16 15 15 15 15 15 15 15 15 15 15 15 15 15 15 15 15 14 14 14 14 13 13 12 11 11 11 10 10 10 10 10 10 10 10
21 21 19 18 17 17 16 16 16 16 15 15 15 15 15 15 15 15 15 15 15 15 15 15 15 15 15 14 14 14 13 13 12 12 11 11 10 10 10 10 10 10 10 10
21 19 19 18 17 17 16 16 16 15 15 15 15 15 14 15 15 15 15 15 15 15 15 15 15 15 15 14 14 14 13 13 12 11 11 11 11 10 10 10 10 10 10 10
18 18 18 17 17 16 16 16 15 15 15 15 15 14 14 14 14 14 14 14 14 15 15 15 15 15 15 14 14 14 13 13 12 12 11 11 11 11 10 10 10 10 10 10
18 18 18 17 17 16 16 16 15 15 15 15 15 14 14 14 14 14 14 14 14 14 14 15 15 15 15 14 14 14 13 13 12 12 11 11 11 11 11 10 10 10 10 10
17 17 17 17 16 16 16 15 15 15 15 15 14 14 14 14 14 14 14 14 14 14 14 14 14 15 15 15 14 14 13 13 12 12 12 12 11 11 11 11 10 10 10 10
17 17 17 17 16 16 16 16 15 15 15 15 14 14 13 13 14 14 13 13 14 14 14 14 14 15 15 14 14 14 13 13 13 12 12 12 12 11 11 11 11 10 10 10
18 17 17 17 16 16 16 16 15 15 15 14 14 13 13 13 13 13 13 13 13 14 14 14 14 15 14 14 14 14 14 13 13 13 12 12 12 11 11 11 11 10 10 10
18 17 17 17 17 16 16 16 15 15 14 14 13 13 13 13 13 13 13 13 13 13 13 14 14 14 14 14 14 14 14 14 13 13 12 12 12 12 11 11 11 10 10 10
17 17 17 17 16 16 16 15 15 15 14 14 13 13 13 13 13 13 13 13 13 13 13 14 14 14 14 14 14 14 14 13 13 13 13 12 12 12 12 11 11 11 10 10
17 17 16 16 16 16 15 15 15 14 14 13 13 13 13 13 13 13 13 13 13 13 13 13 13 13 14 14 14 14 14 13 13 13 13 12 12 12 12 12 11 11 11 10
16 16 16 16 16 15 15 15 14 14 14 13 13 13 13 13 13 13 13 13 12 13 13 13 13 13 14 14 14 14 14 13 13 13 13 13 12 12 12 12 12 11 11 10
16 16 16 15 15 15 14 14 14 14 14 13 13 13 13 13 13 13 13 13 12 13 13 13 13 14 14 14 14 14 13 13 13 13 13 12 12 12 12 12 11 11 11 10
15 15 15 15 15 15 15 14 14 14 14 13 13 13 13 13 13 13 12 12 12 13 13 13 13 13 14 14 14 13 13 13 13 13 13 12 12 12 12 12 11 11 11 10
14 15 15 15 15 15 15 15 14 14 13 13 13 13 13 13 13 13 12 12 12 13 13 13 13 13 13 13 13 13 13 13 13 13 13 13 12 12 12 12 11 11 11 10
13 14 14 14 14 14 14 14 14 14 13 13 13 13 13 13 13 13 13 13 13 13 13 13 13 13 13 13 13 13 13 13 12 13 13 13 12 12 12 12 11 11 11 11
12 12 13 13 13 13 13 14 14 14 13 13 13 13 13 13 12 12 12 13 13 12 12 12 12 12 12 13 13 13 13 13 12 12 12 13 13 12 12 12 12 11 11 11
Wind_Speed
8 5 4 6 8 9 9 6 4 3 2 4 5 6 6 6 7 8 8 9 9 7 7 6 7 7 7 7 7 8 8 8 8 7 6 6 7 7 7 7 8 7 6 5
6 4 2 3 5 5 6 5 4 3 4 3 3 4 6 8 8 9 10 10 10 9 8 7 7 6 6 7 7 8 9 9 8 8 9 8 8 9 8 8 8 8 8 7
3 6 3 1 3 3 3 3 2 4 4 4 5 7 8 9 9 10 10 10 10 10 9 8 7 6 6 8 8 9 8 8 9 10 10 10 10 9 9 8 8 8 8 8
2 4 1 5 5 3 2 2 2 3 3 3 3 4 6 8 9 10 10 9 8 8 8 8 7 7 7 7 8 8 8 9 9 9 9 9 9 9 9 7 7 7 7 7
3 2 5 6 6 5 3 3 3 1 2 3 2 2 7 10 9 9 8 7 7 7 6 7 8 7 7 8 8 8 8 8 8 8 8 8 8 8 7 7 6 6 6 6
4 4 1 7 10 6 3 3 6 3 3 4 5 4 6 9 8 8 7 6 6 6 7 7 7 7 8 8 8 8 7 7 7 7 7 8 8 7 6 6 6 5 5 6
5 4 4 10 11 6 3 5 7 5 4 6 8 6 6 7 7 6 6 6 7 7 5 5 6 6 7 7 7 6 6 6 7 7 6 7 7 6 6 6 6 6 6 6
2 3 3 12 9 4 5 8 6 5 5 5 5 5 6 6 5 6 6 6 6 6 5 4 5 5 6 5 4 4 4 5 5 6 7 7 6 7 7 7 7 7 7 6
3 3 8 9 5 4 6 7 6 5 5 3 3 5 6 6 6 6 6 6 5 6 5 3 3 4 4 3 2 2 3 4 5 6 6 7 7 8 7 7 7 6 6 6
2 5 9 8 6 6 4 5 6 5 4 1 3 4 5 6 6 6 6 6 6 6 6 5 3 2 3 2 2 1 2 4 5 6 6 7 6 6 7 7 7 7 7 7
4 4 8 7 7 8 7 6 6 5 3 1 2 3 5 5 6 6 5 4 5 6 6 6 3 2 3 2 5 3 4 5 6 5 5 5 6 5 6 6 5 5 5 6
1 4 5 8 11 10 9 7 6 6 5 3 1 2 4 5 5 5 5 5 6 7 7 7 5 3 3 2 3 4 5 5 4 4 3 3 5 4 7 6 7 9 10 8
3 4 3 7 11 12 10 9 7 5 4 2 1 1 3 4 4 5 6 6 7 7 7 6 5 5 4 3 1 3 4 4 3 3 2 2 3 3 3 2 5 8 9 10
6 4 5 6 9 10 10 9 8 6 5 3 1 1 3 4 4 5 6 6 6 7 7 6 5 5 6 4 2 1 3 4 2 2 2 3 2 1 2 3 2 2 3 5
6 5 5 7 9 9 9 8 7 6 6 5 3 2 2 3 4 5 5 6 7 7 6 6 5 5 5 5 4 3 3 3 2 2 2 2 1 1 2 2 3 3 2 1
9 7 6 9 10 9 9 9 8 6 5 4 3 2 2 3 4 4 4 5 6 6 6 5 5 6 5 4 2 2 3 4 2 1 0 2 1 1 1 2 3 4 4 4
11 11 9 9 10 10 9 8 7 6 6 5 4 1 2 4 4 4 4 5 5 6 4 4 6 6 6 4 3 1 3 4 2 2 1 1 1 1 2 2 3 4 4 3
10 11 10 10 9 9 9 8 7 5 4 4 3 2 4 4 4 4 5 6 6 5 4 6 6 7 7 3 3 3 1 4 4 3 2 2 1 1 2 3 3 4 4 3
10 11 10 10 9 9 8 8 7 6 5 4 4 4 4 3 3 3 4 5 5 4 6 7 9 9 5 2 2 4 4 2 3 3 4 4 2 2 2 2 3 3 4 4
9 9 10 9 9 8 7 7 7 6 5 5 5 4 4 4 3 2 3 4 2 3 5 7 8 7 4 3 1 4 5 3 2 3 4 4 4 3 3 3 3 3 4 4
8 9 9 9 8 8 7 7 7 6 6 6 5 5 4 3 2 2 2 3 1 4 5 9 6 3 5 4 3 5 5 4 2 2 3 4 3 3 3 3 3 3 4 4
7 8 9 9 9 8 7 7 7 7 7 6 6 5 5 4 4 3 3 3 1 3 3 5 3 4 6 6 5 5 5 5 3 2 2 3 3 3 3 3 3 4 4 5
6 8 9 10 10 10 9 8 8 8 7 7 6 6 6 4 2 2 3 1 2 3 2 4 3 6 7 6 5 5 5 5 4 3 3 3 3 3 3 3 3 4 4 5
4 5 7 8 9 10 10 9 8 7 7 7 6 6 6 4 4 4 4 4 4 2 3 5 7 8 8 6 6 5 5 5 4 3 2 2 2 3 3 4 4 4 4 6
4 3 4 6 7 6 7 8 9 8 7 6 7 8 6 5 5 4 3 2 4 4 5 6 8 9 7 6 6 4 4 4 4 3 3 3 3 3 2 2 4 4 5 5
5 4 3 3 3 3 4 4 5 6 7 6 6 6 5 5 6 5 4 5 7 6 5 5 6 6 5 4 4 5 4 3 4 5 5 4 5 5 4 4 4 4 5 5
6 4 2 3 3 3 3 4 4 5 6 6 6 6 6 5 6 6 6 6 5 5 5 5 5 4 4 3 4 5 5 4 4 5 5 5 5 4 5 6 5 4 4 4
Wind_Direction
86 81 61 53 42 44 54 56 72 87 49 353 336 331 344 355 359 10 17 19 20 21 16 24 29 24 25 27 31 36 35 30 25 26 22 17 13 13 15 10 7 3 5 13
129 124 98 74 68 65 68 67 82 84 60 5 346 355 9 16 18 21 21 21 15 16 16 24 31 30 32 34 39 44 42 32 25 29 28 22 22 25 16 16 11 7 12 23
149 155 222 161 116 101 91 77 50 43 42 14 22 30 30 21 19 24 22 20 11 9 12 20 26 31 51 45 41 41 42 39 30 30 30 26 24 22 16 21 22 17 19 23
256 192 326 98 117 132 137 131 87 66 42 15 21 53 54 38 26 24 20 15 5 1 10 14 19 32 53 58 51 42 35 38 37 34 30 27 26 20 16 20 23 22 22 19
312 321 124 149 165 174 195 153 143 100 45 5 319 133 62 42 35 28 19 10 356 353 12 15 15 26 45 51 49 43 37 38 38 36 32 27 23 17 14 14 17 21 22 19
298 302 25 130 142 159 221 187 140 121 53 11 15 70 38 29 31 28 20 10 355 354 15 14 13 27 40 46 43 38 34 37 40 42 41 34 23 13 11 14 12 17 22 23
278 292 87 122 132 158 232 122 126 119 79 45 44 42 21 19 27 28 24 16 3 356 5 4 8 32 44 42 43 42 37 38 37 32 45 47 29 16 14 16 18 21 24 24
283 279 136 140 153 191 103 113 124 112 84 65 45 36 22 11 24 33 26 20 6 347 345 356 10 28 55 47 35 46 49 52 56 47 38 39 36 25 22 18 21 25 23 22
0 64 111 152 168 116 120 135 135 120 98 76 39 28 16 8 22 30 23 18 357 335 332 353 31 34 44 58 22 37 53 63 60 64 64 43 34 32 28 25 22 21 21 21
279 165 162 180 166 140 152 138 128 119 118 84 34 19 10 6 20 20 14 9 351 338 342 352 19 49 64 29 318 308 84 85 77 61 62 57 38 36 40 25 18 15 18 19
247 154 144 181 186 172 169 155 150 151 155 110 25 10 3 1 15 4 359 0 349 340 336 335 358 36 91 39 323 349 62 74 88 84 81 83 69 45 43 53 33 18 10 20
277 142 171 183 183 181 172 174 179 179 177 164 170 358 352 354 358 351 351 2 0 354 340 335 358 9 90 99 330 10 58 55 67 93 86 106 118 98 56 56 48 48 43 43
76 108 95 131 166 177 174 177 184 190 189 191 195 4 343 339 344 353 0 10 359 341 325 336 356 3 39 87 27 21 73 68 64 68 73 78 111 137 135 90 47 46 47 47
106 132 133 147 162 171 175 175 182 193 193 199 215 320 324 328 344 358 1 359 342 325 330 350 359 22 23 14 23 33 96 103 87 93 77 76 67 65 117 145 146 116 58 47
164 186 161 154 155 170 172 173 187 199 197 193 181 241 304 330 344 346 345 347 336 332 348 351 5 27 17 355 351 22 55 79 73 72 92 100 87 70 79 95 113 121 121 70
180 191 167 164 168 177 179 185 194 202 194 190 199 233 300 323 315 309 338 350 335 333 334 344 15 18 356 339 349 65 91 84 51 347 194 144 131 97 79 74 81 84 70 42
182 190 188 184 181 186 189 193 199 201 188 187 201 223 290 293 299 326 350 338 318 310 325 17 32 1 328 315 306 258 160 146 175 267 261 106 100 110 107 95 91 94 88 56
194 193 192 192 187 189 192 193 197 193 187 180 164 214 260 281 312 333 332 324 320 326 23 34 22 332 305 305 320 315 248 172 188 199 150 104 54 77 120 122 125 128 143 142
195 191 191 195 189 187 189 188 185 183 186 178 189 227 251 274 289 304 317 322 329 353 11 8 343 312 300 81 3 301 290 249 182 156 137 132 206 234 182 161 150 146 142 135
199 192 191 192 187 185 183 178 173 175 182 182 199 226 246 256 260 284 314 313 332 47 354 342 321 307 336 61 22 300 295 286 230 166 163 172 208 217 192 175 161 145 137 136
202 197 194 192 184 180 181 178 172 177 184 189 205 229 247 267 281 282 284 295 13 60 342 316 306 345 18 6 312 289 289 287 264 205 185 190 211 212 198 186 171 159 150 147
208 203 199 195 185 182 184 189 182 185 193 194 198 219 242 257 268 277 267 236 172 94 331 311 1 21 349 328 286 271 270 279 277 247 214 201 209 215 211 200 175 163 153 148
214 209 204 201 195 192 190 196 195 188 192 199 203 212 225 225 224 257 277 275 99 89 313 304 334 317 317 301 273 259 251 254 257 248 226 215 218 215 207 198 179 164 156 154
245 219 212 206 201 199 198 196 195 189 188 196 209 217 222 216 215 222 232 211 182 188 267 278 281 287 294 279 266 253 242 244 242 240 246 238 241 235 206 183 175 173 166 162
308 268 232 217 213 208 207 197 189 190 195 200 210 216 219 209 205 219 244 230 186 211 255 271 272 273 274 273 273 259 232 227 228 223 224 224 229 239 244 196 183 181 173 168
323 314 307 270 245 218 208 205 199 189 190 201 213 217 214 200 193 196 214 239 244 234 240 256 261 263 271 298 320 315 297 241 200 202 222 231 226 209 211 223 215 192 179 174
315 304 286 276 266 238 228 224 218 207 198 199 206 210 210 205 195 196 204 217 230 231 232 239 252 260 271 280 283 284 283 277 246 206 206 216 222 216 205 205 203 195 181 169
Height
1553 1553 1554 1556 1556 1555 1557 1559 1564 1567 1566 1563 1560 1557 1555 1553 1550 1547 1544 1542 1539 1536 1532 1529 1526 1524 1521 1519 1516 1514 1512 1511 1510 1509 1508 1508 1507 1507 1507 1507 1508 1508 1508 1509
1552 1552 1553 1555 1557 1557 1559 1559 1561 1562 1563 1560 1558 1557 1556 1554 1552 1549 1547 1545 1542 1539 1536 1533 1530 1528 1525 1523 1520 1518 1516 1514 1512 1511 1509 1509 1508 1507 1507 1507 1507 1507 1507 1508
1547 1549 1552 1556 1556 1557 1558 1559 1560 1562 1562 1559 1558 1558 1557 1556 1553 1552 1550 1548 1545 1542 1539 1537 1534 1532 1529 1527 1524 1522 1519 1517 1515 1513 1512 1510 1509 1508 1508 1507 1507 1506 1506 1506
1543 1547 1558 1560 1553 1555 1557 1557 1557 1558 1559 1558 1558 1558 1558 1557 1555 1553 1552 1549 1547 1545 1542 1540 1537 1535 1533 1530 1527 1525 1523 1520 1518 1516 1514 1512 1511 1510 1509 1508 1507 1507 1506 1506
1543 1547 1551 1556 1553 1555 1556 1556 1556 1557 1558 1557 1557 1557 1558 1558 1557 1555 1553 1551 1549 1547 1545 1543 1540 1538 1535 1533 1530 1528 1525 1523 1521 1519 1516 1515 1513 1512 1510 1509 1508 1508 1507 1506
1545 1549 1552 1550 1550 1553 1557 1557 1556 1557 1558 1558 1556 1558 1561 1559 1558 1556 1554 1552 1550 1548 1547 1544 1542 1540 1538 1536 1533 1531 1529 1526 1524 1522 1519 1517 1515 1514 1513 1511 1510 1509 1508 1507
1546 1546 1544 1546 1550 1554 1560 1557 1556 1557 1559 1559 1560 1562 1562 1560 1558 1557 1555 1553 1551 1549 1548 1546 1544 1542 1540 1538 1536 1534 1531 1529 1527 1525 1522 1520 1518 1516 1515 1514 1512 1511 1510 1509
1542 1546 1551 1547 1551 1553 1554 1554 1556 1558 1559 1561 1561 1562 1561 1560 1558 1557 1555 1553 1551 1550 1548 1547 1545 1543 1541 1539 1538 1536 1534 1532 1530 1527 1525 1523 1521 1519 1517 1516 1515 1514 1512 1511
1540 1546 1544 1546 1548 1550 1552 1554 1556 1558 1560 1561 1561 1561 1561 1560 1559 1557 1556 1554 1552 1550 1549 1547 1546 1544 1543 1541 1540 1538 1536 1534 1532 1530 1528 1525 1523 1521 1519 1518 1517 1515 1514 1513
1539 1539 1543 1546 1548 1550 1552 1554 1556 1558 1560 1561 1561 1561 1561 1560 1559 1557 1556 1554 1552 1551 1549 1548 1546 1545 1543 1542 1541 1539 1538 1536 1534 1533 1530 1528 1526 1524 1522 1520 1519 1518 1517 1516
1537 1537 1541 1545 1547 1549 1552 1554 1556 1558 1559 1560 1561 1561 1561 1560 1559 1558 1556 1554 1553 1551 1549 1548 1547 1545 1544 1542 1541 1541 1540 1538 1536 1534 1533 1531 1529 1527 1525 1524 1522 1521 1520 1518
1535 1534 1538 1541 1544 1547 1550 1553 1555 1557 1558 1559 1560 1560 1560 1560 1559 1558 1556 1555 1553 1551 1549 1548 1547 1546 1544 1543 1542 1542 1540 1539 1538 1536 1535 1533 1532 1531 1529 1527 1526 1524 1523 1521
1533 1535 1537 1538 1542 1545 1549 1551 1554 1556 1557 1558 1559 1559 1559 1559 1558 1557 1556 1554 1552 1551 1549 1549 1547 1546 1545 1543 1543 1542 1541 1540 1539 1538 1536 1535 1534 1533 1532 1531 1530 1528 1526 1525
1533 1535 1537 1539 1541 1545 1547 1550 1552 1554 1556 1557 1558 1558 1558 1558 1557 1556 1555 1553 1552 1550 1550 1548 1547 1546 1545 1544 1543 1542 1541 1540 1539 1538 1538 1537 1536 1535 1534 1533 1532 1531 1529 1528
1533 1535 1537 1539 1541 1544 1546 1549 1551 1553 1554 1555 1556 1556 1557 1556 1556 1555 1554 1552 1551 1550 1549 1548 1547 1545 1544 1543 1543 1542 1542 1541 1540 1539 1539 1538 1538 1537 1536 1535 1534 1533 1532 1530
1531 1534 1536 1538 1540 1543 1545 1547 1549 1551 1552 1553 1554 1555 1555 1555 1554 1554 1553 1551 1550 1549 1548 1547 1546 1544 1543 1543 1542 1542 1541 1540 1540 1540 1539 1539 1539 1538 1538 1537 1536 1535 1534 1532
1528 1531 1533 1536 1538 1540 1543 1545 1547 1549 1550 1551 1552 1553 1553 1553 1553 1552 1551 1550 1549 1548 1548 1546 1545 1543 1542 1542 1541 1541 1541 1540 1540 1540 1540 1540 1540 1539 1539 1538 1537 1536 1535 1534
1525 1528 1531 1533 1536 1538 1540 1543 1545 1546 1548 1549 1550 1550 1551 1551 1551 1550 1550 1549 1548 1547 1546 1544 1543 1542 1542 1541 1541 1541 1541 1540 1540 1540 1540 1540 1540 1539 1539 1539 1538 1537 1536 1535
1522 1525 1528 1530 1533 1535 1538 1540 1542 1544 1545 1546 1547 1548 1549 1549 1549 1548 1548 1547 1546 1545 1544 1542 1542 1541 1541 1540 1540 1540 1540 1540 1540 1539 1539 1539 1539 1539 1539 1539 1538 1537 1536 1535
1520 1522 1525 1528 1530 1533 1535 1537 1539 1541 1542 1543 1544 1545 1546 1546 1546 1546 1545 1545 1544 1543 1542 1540 1540 1539 1539 1538 1538 1538 1538 1539 1539 1539 1538 1538 1538 1538 1538 1538 1538 1537 1537 1535
1517 1520 1522 1524 1527 1529 1532 1534 1535 1537 1539 1540 1541 1542 1543 1544 1544 1543 1543 1542 1542 1540 1540 1539 1538 1537 1536 1536 1536 1536 1536 1537 1538 1538 1537 1537 1537 1537 1537 1537 1537 1536 1536 1535
1514 1517 1519 1521 1524 1526 1528 1530 1532 1534 1535 1537 1538 1539 1540 1540 1540 1540 1540 1540 1539 1538 1537 1536 1535 1534 1534 1533 1533 1533 1534 1534 1535 1535 1536 1536 1536 1536 1536 1536 1535 1535 1534 1534
1512 1514 1516 1518 1520 1523 1525 1527 1529 1530 1532 1533 1534 1535 1536 1537 1537 1537 1537 1537 1536 1535 1534 1533 1532 1532 1531 1530 1530 1531 1531 1532 1532 1533 1533 1533 1533 1534 1534 1533 1533 1533 1533 1532
1510 1511 1513 1515 1518 1519 1521 1523 1525 1526 1528 1529 1530 1531 1532 1533 1533 1533 1533 1533 1532 1532 1531 1530 1529 1529 1528 1528 1528 1528 1528 1529 1529 1530 1530 1530 1531 1531 1531 1531 1531 1531 1530 1530
1509 1509 1511 1512 1514 1515 1518 1519 1521 1522 1524 1525 1526 1527 1528 1529 1529 1530 1530 1530 1529 1528 1528 1527 1526 1526 1525 1525 1525 1526 1526 1526 1526 1526 1527 1527 1527 1528 1528 1528 1528 1528 1528 1528
1507 1507 1508 1509 1510 1512 1513 1515 1517 1518 1519 1520 1521 1523 1524 1524 1525 1525 1525 1525 1525 1525 1524 1524 1523 1523 1522 1522 1522 1522 1522 1522 1522 1523 1523 1523 1524 1524 1524 1525 1525 1525 1525 1525
1505 1505 1505 1506 1506 1508 1509 1510 1512 1513 1514 1515 1516 1518 1519 1520 1520 1520 1520 1521 1521 1521 1520 1520 1520 1520 1519 1519 1518 1518 1518 1518 1519 1519 1519 1519 1520 1520 1521 1521 1521 1521 1522 1522